[[{"header":{"parameterUnit":"m.s-1","parameterCategory":1,"la1":30.2991,"la2":30.254,"lo1":-89.0895,"lo2":-89.0444,"dy":0.0017,"dx":0.0017,"nx":28,"ny":28,"refTime":"2025-02-11T03:00:00:Z","depth":0,"parameterNumber":2,"parameterNumberName":"U-component_of_WINDS"},"data":[0,0,0,0,0,0,0,0,0,0,0,0,0,0,0,0,0,0,0,0,0,0,0,0,0,0,0,0,0,0,0,0,0,0,0,0,0,0,0,0,0,0,0,0,0,0,0,0,0,0,0,0,0,0,0,0,0,0,-2.8803,-2.8804,0,-2.8933,-2.8934,-2.8936,-2.8953,-2.8952,-2.8951,-2.895,-2.9076,-2.9081,-2.9085,0,0,0,0,0,0,0,0,0,0,0,0,0,-2.8566,-2.857,-2.8803,-2.8805,-2.8806,-2.8933,-2.8934,-2.8936,-2.8953,-2.8952,-2.895,-2.8949,-2.9075,-2.908,-2.9086,0,0,0,0,0,0,0,0,0,0,0,0,0,-2.8679,-2.8572,-2.8803,-2.883,-2.8834,-2.8932,-2.8934,-2.8936,-2.8954,-2.8952,-2.895,-2.8948,-2.9073,-2.908,-2.9086,-2.9164,0,0,-2.9107,-2.911,0,0,0,0,0,0,0,0,-2.8673,-2.8688,-2.8825,-2.8829,-2.8833,-2.8925,-2.8897,-2.9013,-2.8954,-2.8908,-2.895,-2.8948,-2.9027,-2.9037,-2.9066,-2.917,-2.9175,-2.9107,-2.9112,-2.9114,-2.9116,0,0,0,0,0,0,0,-2.8665,-2.8683,-2.8854,-2.8826,-2.8832,-2.8835,-2.8849,-2.8919,-2.8976,-2.8912,-2.8914,-2.8929,-2.9029,-2.9059,-2.9069,-2.9177,-2.9107,-2.9113,-2.9117,-2.912,-2.9356,-2.9358,0,0,0,0,0,0,-2.8653,-2.8676,-2.885,-2.8858,-2.8747,-2.8841,-2.8856,-2.8897,-2.8975,-2.8985,-2.893,-2.8929,-2.9048,-2.9061,-2.9073,-2.9173,-2.9114,-2.9121,-2.9125,-2.9354,-2.9357,-2.9359,0,0,0,0,0,0,-2.8648,-2.8668,-2.8845,-2.8768,-2.879,-2.8847,-2.8892,-2.8901,-2.8931,-2.8989,-2.8999,-2.8951,-2.9047,-2.9064,-2.9143,-2.9177,-2.9124,-2.913,-2.9351,-2.9355,-2.9358,-2.937,0,0,0,0,0,0,-2.8641,-2.8666,-2.8697,-2.8768,-2.8794,-2.8913,-2.8894,-2.8905,-2.8943,-2.8943,-2.9011,-2.9021,-2.9047,-2.9133,-2.9149,-2.9186,-2.9135,-2.9349,-2.9353,-2.9357,-2.9367,-2.9373,-2.9379,0,0,0,0,0,-2.8632,-2.8693,-2.8699,-2.8719,-2.8834,-2.8915,-2.893,-2.8961,-2.8946,-2.8977,-2.9015,-2.9018,-2.917,-2.914,-2.916,-2.9198,-2.9347,-2.9352,-2.9357,-2.9364,-2.9372,-2.9379,0,0,0,0,0,0,-2.862,-2.8702,-2.871,-2.8795,-2.8849,-2.8918,-2.8958,-2.8968,-2.9024,-2.9022,-2.9056,-2.9071,-2.915,-2.9181,-2.9147,-2.928,-2.9257,-2.9266,-2.9256,-2.9264,-2.927,-2.9262,-2.9141,0,0,0,0,0,-2.8629,-2.8689,-2.8756,-2.8825,-2.8852,-2.8901,-2.8937,-2.8957,-2.9012,-2.9034,-2.9078,-2.913,-2.919,-2.9229,-2.9287,-2.9371,-2.9388,-2.9408,-2.9414,-2.9418,-2.9426,-2.9477,-2.9488,-2.9376,-2.9376,-2.9376,0,0,-2.8644,-2.8697,-2.8732,-2.8825,-2.8868,-2.893,-2.8919,-2.8983,-2.9029,-2.9043,-2.9122,-2.9156,-2.9217,-2.93,-2.9339,-2.9329,-2.9461,-2.9425,-2.9428,-2.9434,-2.9484,-2.9494,-2.9504,-2.9379,-2.9379,-2.9378,0,0,-2.8705,-2.875,-2.8815,-2.886,-2.8928,-2.896,-2.8976,-2.9045,-2.9069,-2.9149,-2.9163,-2.9217,-2.9318,-2.9363,-2.9398,-2.9481,-2.9487,-2.9498,-2.9531,-2.958,-2.9589,-2.9597,-2.963,-2.964,-2.9506,-2.9506,-2.9506,0,-2.8716,-2.8811,-2.8846,-2.8912,-2.8953,-2.8972,-2.9038,-2.9079,-2.9161,-2.9188,-2.9177,-2.9308,-2.935,-2.9446,-2.9467,-2.9494,-2.9514,-2.9491,-2.9585,-2.9594,-2.9602,-2.9633,-2.9645,-2.9507,-2.9507,-2.9507,-2.9507,0,-2.8822,-2.8888,-2.8931,-2.9015,-2.9061,-2.9126,-2.917,-2.9212,-2.9229,-2.9263,-2.9346,-2.9397,-2.9469,-2.9492,-2.9507,-2.9592,-2.9584,-2.9578,-2.9557,-2.9613,-2.9643,-2.9655,-2.9509,-2.9508,-2.9508,-2.9508,0,0,-2.8877,-2.8983,-2.8999,-2.9039,-2.9116,-2.9167,-2.9234,-2.9306,-2.9343,-2.9399,-2.9457,-2.9545,-2.9542,-2.9582,-2.9603,-2.9646,-2.9713,-2.9636,-2.9638,-2.9651,-2.9813,-2.9818,-2.9832,-2.9717,-2.9719,-2.9721,-2.9809,0,-2.895,-2.9072,-2.9108,-2.921,-2.9273,-2.9294,-2.9352,-2.9406,-2.944,-2.9497,-2.9534,-2.9597,-2.9586,-2.9612,-2.9655,-2.9695,-2.9746,-2.9689,-2.9772,-2.9775,-2.9759,-2.9847,-2.9852,-2.9932,-2.982,-2.9822,-2.9824,0,-2.905,-2.9113,-2.9224,-2.9298,-2.9325,-2.9377,-2.9449,-2.9503,-2.9565,-2.9587,-2.9635,-2.9653,-2.9724,-2.9698,-2.9798,-2.9758,-2.9794,-2.982,-2.9823,-2.9834,-2.9804,-2.9862,-2.9958,-2.9971,-2.9842,-2.9841,-2.9839,0,-2.9083,-2.9195,-2.9277,-2.931,-2.9397,-2.9435,-2.9472,-2.9533,-2.9576,-2.9637,-2.9666,-2.9734,-2.9771,-2.9824,-2.986,-2.9837,-2.9957,-2.9933,-2.9979,-2.9978,-3.0004,-3.0002,-3.0109,-3.0023,-3.0023,-3.0023,-3.0023,0,-2.9161,-2.9228,-2.9294,-2.9344,-2.9421,-2.9461,-2.9535,-2.9574,-2.9628,-2.9687,-2.9707,-2.9761,-2.9804,-2.9864,-2.9893,-2.9973,-2.9989,-3.0009,-3.0016,-3.0009,-3.0007,-3.0034,-3.003,-3.0026,-3.0025,-3.0025,-3.0024,0,-2.9211,-2.9258,-2.9349,-2.9426,-2.9447,-2.9501,-2.9566,-2.9616,-2.9652,-2.9726,-2.9745,-2.9801,-2.9874,-2.9915,-3.0004,-3.0024,-3.0114,-3.0117,-3.0094,-3.0098,-3.0142,-3.0138,-3.0272,-3.0293,-3.0191,-3.0192,-3.0192,0,-2.9259,-2.9312,-2.9397,-2.9439,-2.9479,-2.9545,-2.9591,-2.9632,-2.9678,-2.9756,-2.9796,-2.9871,-2.9932,-3.0047,-3.0095,-3.0165,-3.0172,-3.0214,-3.0182,-3.0174,-3.0176,-3.0173,-3.018,-3.0219,-3.022,-3.0221,-3.0222,0,-2.9339,-2.9361,-2.9427,-2.9502,-2.9557,-2.9617,-2.9676,-2.9709,-2.976,-2.9811,-2.9887,-2.9935,-3.003,-3.0104,-3.0179,-3.0217,-3.0229,-3.0232,-3.0247,-3.024,-3.0226,-3.0238,-3.0112,-3.0228,-3.0228,-3.0227,-3.0227,-3.0227,-2.9392,-2.9442,-2.9511,-2.9584,-2.9635,-2.9691,-2.9743,-2.9788,-2.9853,-2.9935,-2.9955,-3.0036,-3.01,-3.0202,-3.0243,-3.0306,-3.0299,-3.0319,-3.0325,-3.033,-3.0333,-3.0215,-3.032,-3.0319,-3.0319,-3.0319,-3.0319,0,-2.9476,-2.9523,-2.959,-2.9676,-2.9734,-2.9743,-2.981,-2.9858,-2.993,-2.999,-3.0052,-3.0141,-3.0214,-3.027,-3.0345,-3.0385,-3.0393,-3.0404,-3.0402,-3.0412,-3.0334,-3.0315,-3.0397,-3.0397,-3.0397,-3.0397,-3.0397,-3.0397,-2.9527,-2.9613,-2.9644,-2.9756,-2.9802,-2.9884,-2.9922,-2.9975,-3.0023,-3.0123,-3.0185,-3.0222,-3.0281,-3.0362,-3.043,-3.0444,-3.0472,-3.0483,-3.0499,-3.0425,-3.0417,-3.0409,-3.0392,-3.0488,-3.0488,-3.0572,-3.0572,-3.0573]},{"header":{"parameterUnit":"m.s-1","parameterCategory":1,"la1":30.2991,"la2":30.254,"lo1":-89.0895,"lo2":-89.0444,"dy":0.0017,"dx":0.0017,"nx":28,"ny":28,"refTime":"2025-02-11T03:00:00:Z","depth":0,"parameterNumber":3,"parameterNumberName":"V-component_of_WINDS"},"data":[0,0,0,0,0,0,0,0,0,0,0,0,0,0,0,0,0,0,0,0,0,0,0,0,0,0,0,0,0,0,0,0,0,0,0,0,0,0,0,0,0,0,0,0,0,0,0,0,0,0,0,0,0,0,0,0,0,0,-1.2591,-1.2592,0,-1.2739,-1.274,-1.2742,-1.2836,-1.2836,-1.2837,-1.2837,-1.299,-1.2994,-1.2997,0,0,0,0,0,0,0,0,0,0,0,0,0,-1.239,-1.2394,-1.259,-1.2592,-1.2594,-1.2738,-1.274,-1.2742,-1.2836,-1.2836,-1.2837,-1.2838,-1.2989,-1.2993,-1.2998,0,0,0,0,0,0,0,0,0,0,0,0,0,-1.2502,-1.2395,-1.259,-1.2658,-1.2666,-1.2738,-1.274,-1.2743,-1.2835,-1.2836,-1.2837,-1.2838,-1.2988,-1.2993,-1.2998,-1.3015,0,0,-1.3014,-1.3017,0,0,0,0,0,0,0,0,-1.2495,-1.2509,-1.2646,-1.2653,-1.2662,-1.277,-1.2726,-1.2834,-1.2835,-1.2771,-1.2837,-1.2838,-1.2916,-1.2927,-1.2954,-1.3022,-1.3029,-1.3015,-1.3018,-1.3021,-1.3022,0,0,0,0,0,0,0,-1.2487,-1.2503,-1.2649,-1.2648,-1.2658,-1.2682,-1.2698,-1.2747,-1.2837,-1.2777,-1.2784,-1.28,-1.2921,-1.2948,-1.2958,-1.3031,-1.3015,-1.302,-1.3023,-1.3025,-1.3124,-1.3124,0,0,0,0,0,0,-1.2469,-1.2496,-1.2644,-1.2654,-1.2579,-1.2685,-1.2703,-1.2734,-1.2837,-1.2853,-1.2799,-1.2804,-1.2939,-1.2951,-1.2964,-1.2993,-1.302,-1.3026,-1.3029,-1.3125,-1.3124,-1.3124,0,0,0,0,0,0,-1.2464,-1.2481,-1.2638,-1.2577,-1.2599,-1.2687,-1.2721,-1.2737,-1.2764,-1.2854,-1.2871,-1.281,-1.294,-1.2956,-1.3002,-1.2999,-1.3028,-1.3033,-1.3126,-1.3125,-1.3124,-1.3049,0,0,0,0,0,0,-1.2458,-1.2479,-1.2486,-1.2576,-1.2602,-1.2674,-1.2721,-1.2739,-1.2773,-1.2781,-1.2869,-1.2885,-1.2942,-1.2994,-1.3007,-1.3007,-1.3037,-1.3126,-1.3125,-1.3124,-1.3052,-1.3046,-1.304,0,0,0,0,0,-1.245,-1.2458,-1.2485,-1.2503,-1.2612,-1.2673,-1.2688,-1.2753,-1.2772,-1.2781,-1.2839,-1.2882,-1.2997,-1.2998,-1.3014,-1.3015,-1.3127,-1.3125,-1.3124,-1.3055,-1.3047,-1.304,0,0,0,0,0,0,-1.2365,-1.2471,-1.2503,-1.254,-1.2597,-1.2689,-1.2701,-1.2742,-1.2795,-1.28,-1.2879,-1.2898,-1.2937,-1.298,-1.2979,-1.3038,-1.3067,-1.3069,-1.3009,-1.3002,-1.2996,-1.2986,-1.3041,0,0,0,0,0,-1.235,-1.239,-1.2482,-1.2506,-1.2533,-1.2611,-1.2641,-1.2686,-1.2748,-1.2773,-1.2834,-1.2894,-1.2944,-1.2975,-1.3026,-1.3058,-1.308,-1.3067,-1.3061,-1.3056,-1.3057,-1.3081,-1.3077,-1.3119,-1.3119,-1.3119,0,0,-1.232,-1.2384,-1.2404,-1.249,-1.254,-1.2581,-1.2631,-1.2672,-1.2704,-1.278,-1.2828,-1.2874,-1.2946,-1.2986,-1.3007,-1.3024,-1.305,-1.3054,-1.3049,-1.3054,-1.3079,-1.3075,-1.3071,-1.3118,-1.3119,-1.3119,0,0,-1.2288,-1.2339,-1.2366,-1.2414,-1.2489,-1.2542,-1.2548,-1.2634,-1.2668,-1.2717,-1.2776,-1.2815,-1.2898,-1.2948,-1.2984,-1.2971,-1.3014,-1.2986,-1.2955,-1.2977,-1.2973,-1.2971,-1.2969,-1.2967,-1.2986,-1.2986,-1.2986,0,-1.2242,-1.2306,-1.2374,-1.2413,-1.245,-1.252,-1.2549,-1.2592,-1.2679,-1.2704,-1.2721,-1.2829,-1.2882,-1.2936,-1.2933,-1.2959,-1.297,-1.2977,-1.2968,-1.2966,-1.2965,-1.2964,-1.2963,-1.2982,-1.2983,-1.2983,-1.2984,0,-1.2247,-1.229,-1.2303,-1.2386,-1.2424,-1.2457,-1.2532,-1.2562,-1.2604,-1.2655,-1.2706,-1.2772,-1.2838,-1.2854,-1.2895,-1.2915,-1.2923,-1.2953,-1.2984,-1.2956,-1.2957,-1.2957,-1.2977,-1.2978,-1.2979,-1.298,0,0,-1.2165,-1.2286,-1.229,-1.2329,-1.2417,-1.2452,-1.2489,-1.2554,-1.258,-1.2637,-1.2672,-1.2742,-1.2771,-1.2811,-1.2859,-1.2877,-1.2867,-1.2906,-1.2909,-1.2898,-1.2895,-1.2874,-1.2872,-1.2895,-1.2895,-1.2895,-1.289,0,-1.2148,-1.2217,-1.2281,-1.2328,-1.237,-1.2438,-1.2471,-1.2528,-1.2577,-1.2621,-1.2675,-1.2725,-1.2757,-1.2783,-1.2804,-1.2863,-1.2868,-1.2864,-1.293,-1.2931,-1.2912,-1.2872,-1.2849,-1.2841,-1.2891,-1.2891,-1.2891,0,-1.2137,-1.2192,-1.2243,-1.2329,-1.2349,-1.2377,-1.2443,-1.2483,-1.2551,-1.2585,-1.2631,-1.2681,-1.2725,-1.275,-1.2813,-1.2809,-1.284,-1.2873,-1.2874,-1.2884,-1.291,-1.2883,-1.284,-1.284,-1.2891,-1.2891,-1.2891,0,-1.2075,-1.2162,-1.2205,-1.2236,-1.2336,-1.2355,-1.2397,-1.2466,-1.2501,-1.2559,-1.2583,-1.2645,-1.2679,-1.2726,-1.2792,-1.2804,-1.2849,-1.2879,-1.2881,-1.2879,-1.2889,-1.2888,-1.2852,-1.2904,-1.2904,-1.2904,-1.2904,0,-1.205,-1.2079,-1.2179,-1.2206,-1.2241,-1.2314,-1.2347,-1.2396,-1.2456,-1.2495,-1.2556,-1.2591,-1.2675,-1.272,-1.2772,-1.2818,-1.2832,-1.2863,-1.2877,-1.2859,-1.2855,-1.2881,-1.2884,-1.2904,-1.2904,-1.2904,-1.2904,0,-1.1988,-1.2055,-1.2107,-1.2198,-1.2221,-1.2244,-1.2322,-1.2351,-1.2403,-1.2451,-1.2466,-1.2549,-1.2606,-1.2676,-1.2755,-1.279,-1.2831,-1.285,-1.2808,-1.2816,-1.2816,-1.2815,-1.2797,-1.2799,-1.2847,-1.2847,-1.2846,0,-1.1969,-1.1993,-1.2086,-1.2116,-1.2157,-1.2204,-1.2241,-1.2314,-1.235,-1.243,-1.245,-1.2511,-1.2564,-1.2651,-1.2719,-1.2781,-1.2804,-1.2793,-1.2813,-1.2795,-1.2807,-1.2805,-1.2809,-1.2788,-1.2787,-1.2787,-1.2786,0,-1.1928,-1.1961,-1.2011,-1.2074,-1.2116,-1.2169,-1.2225,-1.2246,-1.233,-1.2368,-1.2427,-1.2467,-1.2549,-1.261,-1.268,-1.2725,-1.2771,-1.2779,-1.2783,-1.2766,-1.2741,-1.2757,-1.2796,-1.2779,-1.278,-1.2781,-1.2781,-1.2781,-1.1889,-1.1915,-1.1985,-1.204,-1.2089,-1.214,-1.2173,-1.2229,-1.2279,-1.2351,-1.2391,-1.2449,-1.2518,-1.2617,-1.266,-1.2708,-1.2724,-1.2729,-1.2731,-1.2732,-1.2728,-1.2732,-1.2721,-1.2721,-1.2721,-1.2721,-1.2722,0,-1.1854,-1.1902,-1.1952,-1.2028,-1.2072,-1.2109,-1.2173,-1.2208,-1.2258,-1.2318,-1.2369,-1.2438,-1.2497,-1.257,-1.2635,-1.2659,-1.2682,-1.2674,-1.2674,-1.2684,-1.2708,-1.2699,-1.2655,-1.2655,-1.2655,-1.2655,-1.2655,-1.2655,-1.1841,-1.1887,-1.1928,-1.2,-1.2049,-1.2106,-1.214,-1.2188,-1.2236,-1.231,-1.236,-1.2406,-1.2473,-1.2543,-1.26,-1.262,-1.2642,-1.2629,-1.2655,-1.2676,-1.2682,-1.2688,-1.268,-1.2632,-1.2632,-1.2628,-1.2628,-1.2628]}]]